Portada
METAR-TAF:

METAR-TAF

Aeroports :

Derby, Austràlia

latitud: 17-22-12S, longitud: 123-39-38E, altitud: 7 m

Observació

L'informe es va fer fa 32 minuts, a les 22:00 UTC
Vent 1 kt del Nord/Nord-Oest
Temperatura 31°C
Humitat 55%
Pressió 1008 hPa
Visibilitat 10 km o més

METAR: YDBY 112200Z AUTO 34001KT 9999 // NCD 31/21 Q1008

Hora: 06:32 (22:32 UTC)


TAF: manca

Observacions i pronòstics meteorològics de més de 4000 aeroports (METAR i TAF).

Les estacions disponibles són els punts grocs i vermells al mapa.

Posi el ratolí al punt desitjat per veure el nom de l'estació.

Feu clic per veure les observacions i els pronòstics meteorològics.

Per canviar el mapa: feu clic els botons verds amb una creu de color negre per apropar; al botó verd amb un guió per allunyar la imatge; o en les fletxes verdes per a mapes adjacents.


METAR-TAF: